XBFGP MMZO-MMPR

Flight info

Callsign XBFGP
Flight time 0h 22m
Altitude 12500
Route MMZO DCT MMPR
Aircraft TBM9/L-V/N

Departure

Time 2026-05-07 17:57
Airport Playa de Oro International Airport (MMZO)

Arrival

Time 2026-05-07 18:20
Airport Puerto Vallarta International Airport (MMPR)
Time Latitude Longitude Altitude Speed Heading
2026-05-07 17:54 19.14727 -104.56055 34 ft 0 kts 194°
2026-05-07 17:56 19.14684 -104.56000 34 ft 34 kts 120°
2026-05-07 17:56 19.14511 -104.55817 35 ft 20 kts 171°
2026-05-07 17:56 19.14519 -104.56021 35 ft 56 kts 286°
2026-05-07 17:57 19.14678 -104.56572 90 ft 90 kts 286°
2026-05-07 17:57 19.14793 -104.57034 163 ft 114 kts 280°
2026-05-07 17:57 19.15599 -104.58022 430 ft 159 kts 351°
2026-05-07 17:57 19.16720 -104.57846 869 ft 173 kts 18°
2026-05-07 17:58 19.17991 -104.57659 1312 ft 198 kts
2026-05-07 17:58 19.19376 -104.57959 1760 ft 211 kts 338°
2026-05-07 17:58 19.20742 -104.58600 2229 ft 220 kts 334°
2026-05-07 17:58 19.22159 -104.59281 2643 ft 224 kts 337°
2026-05-07 17:59 19.23610 -104.59940 3124 ft 224 kts 338°
2026-05-07 17:59 19.25036 -104.60577 3714 ft 219 kts 338°
2026-05-07 17:59 19.26434 -104.61198 4301 ft 216 kts 338°
2026-05-07 17:59 19.27814 -104.61812 4907 ft 215 kts 339°
2026-05-07 18:00 19.29176 -104.62435 5489 ft 212 kts 339°
2026-05-07 18:00 19.30532 -104.63047 6079 ft 210 kts 339°
2026-05-07 18:00 19.31873 -104.63645 6658 ft 208 kts 339°
2026-05-07 18:00 19.33207 -104.64242 7125 ft 212 kts 338°
2026-05-07 18:01 19.34601 -104.64871 7426 ft 222 kts 338°
2026-05-07 18:01 19.36052 -104.65520 7744 ft 230 kts 338°
2026-05-07 18:01 19.37542 -104.66189 8062 ft 235 kts 338°
2026-05-07 18:01 19.39061 -104.66873 8377 ft 239 kts 337°
2026-05-07 18:02 19.42154 -104.68265 9019 ft 246 kts 337°
2026-05-07 18:02 19.43738 -104.68977 9343 ft 248 kts 336°
2026-05-07 18:02 19.45343 -104.69700 9670 ft 251 kts 336°
2026-05-07 18:03 19.46944 -104.70422 9973 ft 253 kts 336°
2026-05-07 18:03 19.48572 -104.71156 10277 ft 255 kts 336°
2026-05-07 18:03 19.50213 -104.71895 10570 ft 257 kts 336°
2026-05-07 18:03 19.51862 -104.72639 10871 ft 259 kts 336°
2026-05-07 18:04 19.53529 -104.73389 11175 ft 260 kts 336°
2026-05-07 18:04 19.54636 -104.73888 11377 ft 262 kts 336°
2026-05-07 18:04 19.56319 -104.74647 11684 ft 263 kts 336°
2026-05-07 18:04 19.58008 -104.75408 12001 ft 264 kts 337°
2026-05-07 18:05 19.59704 -104.76174 12316 ft 265 kts 337°
2026-05-07 18:05 19.61417 -104.76948 12540 ft 272 kts 337°
2026-05-07 18:05 19.63202 -104.77750 12538 ft 283 kts 337°
2026-05-07 18:05 19.65045 -104.78576 12534 ft 291 kts 338°
2026-05-07 18:06 19.66897 -104.79410 12550 ft 295 kts 337°
2026-05-07 18:06 19.68797 -104.80270 12548 ft 298 kts 337°
2026-05-07 18:06 19.70721 -104.81139 12547 ft 301 kts 337°
2026-05-07 18:06 19.72657 -104.82014 12548 ft 303 kts 336°
2026-05-07 18:07 19.74602 -104.82893 12509 ft 305 kts 337°
2026-05-07 18:07 19.76566 -104.83782 12486 ft 305 kts 336°
2026-05-07 18:07 19.78516 -104.84662 12486 ft 304 kts 336°
2026-05-07 18:07 19.80436 -104.85535 12492 ft 304 kts 336°
2026-05-07 18:08 19.82382 -104.86418 12489 ft 304 kts 336°
2026-05-07 18:08 19.84329 -104.87296 12489 ft 304 kts 337°
2026-05-07 18:08 19.86280 -104.88175 12484 ft 305 kts 336°
2026-05-07 18:08 19.88228 -104.89059 12489 ft 305 kts 336°
2026-05-07 18:09 19.90179 -104.89946 12481 ft 305 kts 336°
2026-05-07 18:09 19.92129 -104.90830 12478 ft 305 kts 336°
2026-05-07 18:09 19.94081 -104.91714 12485 ft 305 kts 336°
2026-05-07 18:09 19.96030 -104.92597 12480 ft 304 kts 336°
2026-05-07 18:10 19.97980 -104.93480 12481 ft 304 kts 336°
2026-05-07 18:10 19.99931 -104.94367 12480 ft 304 kts 336°
2026-05-07 18:10 20.01881 -104.95251 12487 ft 304 kts 336°
2026-05-07 18:10 20.03826 -104.96134 12487 ft 304 kts 336°
2026-05-07 18:11 20.05766 -104.97014 12500 ft 303 kts 336°
2026-05-07 18:11 20.07704 -104.97896 12502 ft 303 kts 336°
2026-05-07 18:11 20.09647 -104.98778 12498 ft 303 kts 336°
2026-05-07 18:11 20.11560 -104.99646 12503 ft 303 kts 336°
2026-05-07 18:12 20.13500 -105.00528 12500 ft 303 kts 336°
2026-05-07 18:12 20.15442 -105.01411 12506 ft 303 kts 336°
2026-05-07 18:12 20.17381 -105.02292 12505 ft 303 kts 336°
2026-05-07 18:12 20.19320 -105.03174 12500 ft 303 kts 336°
2026-05-07 18:13 20.21260 -105.04057 12505 ft 303 kts 336°
2026-05-07 18:13 20.23202 -105.04942 12502 ft 303 kts 336°
2026-05-07 18:13 20.25139 -105.05825 12517 ft 304 kts 336°
2026-05-07 18:13 20.27105 -105.06718 12526 ft 307 kts 336°
2026-05-07 18:14 20.29082 -105.07615 12510 ft 309 kts 336°
2026-05-07 18:14 20.31060 -105.08520 12529 ft 311 kts 336°
2026-05-07 18:14 20.33046 -105.09422 12531 ft 308 kts 336°
2026-05-07 18:14 20.35022 -105.10319 12486 ft 307 kts 336°
2026-05-07 18:15 20.36983 -105.11216 12458 ft 309 kts 336°
2026-05-07 18:15 20.38972 -105.12126 12209 ft 314 kts 336°
2026-05-07 18:15 20.40992 -105.13034 11969 ft 314 kts 336°
2026-05-07 18:15 20.42980 -105.13946 11718 ft 316 kts 336°
2026-05-07 18:16 20.45011 -105.14885 11489 ft 318 kts 336°
2026-05-07 18:16 20.47048 -105.15808 11251 ft 318 kts 337°
2026-05-07 18:16 20.49087 -105.16732 11006 ft 317 kts 336°
2026-05-07 18:16 20.51116 -105.17658 10771 ft 316 kts 336°
2026-05-07 18:17 20.53108 -105.18581 10550 ft 313 kts 336°
2026-05-07 18:17 20.55010 -105.19446 9947 ft 289 kts 336°
2026-05-07 18:17 20.56848 -105.20282 8874 ft 286 kts 337°
2026-05-07 18:17 20.58677 -105.21120 7823 ft 284 kts 337°
2026-05-07 18:18 20.60483 -105.21957 6800 ft 279 kts 338°
2026-05-07 18:18 20.62252 -105.22763 5796 ft 276 kts 338°
2026-05-07 18:18 20.63997 -105.23566 4705 ft 268 kts 329°
2026-05-07 18:18 20.64854 -105.24828 3134 ft 177 kts 301°
2026-05-07 18:19 20.65164 -105.25965 1981 ft 140 kts 294°
2026-05-07 18:19 20.65851 -105.26657 1018 ft 130 kts 335°
2026-05-07 18:19 20.66742 -105.26714 200 ft 131 kts 17°
2026-05-07 18:19 20.67340 -105.26189 17 ft 80 kts 47°
2026-05-07 18:20 20.67569 -105.25912 17 ft 57 kts 44°
2026-05-07 18:20 20.67857 -105.25593 21 ft 59 kts 52°
2026-05-07 18:20 20.67975 -105.25293 21 ft 37 kts 139°
2026-05-07 18:20 20.67789 -105.25154 21 ft 26 kts 223°